Погода в Леушинской

Россия / Вологодская область     60˚25′41″N   41˚41′56″E
темп.,
°C
ветер,
м/с
пор.,
м/с
влажн.,
%
обл.,
%
осадки,
мм/ч
давл.,
гПа
погр.,
м
17 января, вс
вс1700:00−24˚с41199100 0.0 1010262
03:00−24˚с4998100 0.0 1011234
06:00−24˚с3799100 0.0 1011162
09:00−25˚ссз229881 0.0 101227
12:00−20˚зсз129331 0.0 101393
15:00−20˚зюз229320 0.0 101322
18:00−21˚юз239832 0.0 101469
21:00−20˚юз279852 0.0 1014138
18 января, пн
пн1800:00−18˚юз389790 0.0 1013196
03:00−16˚юз379694 0.1 1013240
06:00−15˚зюз369699 0.1 1012252
09:00−15˚зюз269799 0.3 1013148
12:00−13˚зюз259482 0.1 1014220
15:00−13˚юз249782 0.3 101493
18:00−14˚зюз229786 0.1 101451
21:00−14˚зюз229793 0.1 101548
19 января, вт
вт1900:00−15˚юз229798 0.1 101538
03:00−16˚юз229895 0.1 101528
06:00−15˚юз2297100 0.1 101462
09:00−14˚юз2297100 0.2 101468
12:00−12˚юз239598 0.1 1014157
15:00−11˚юз249699 0.2 1013166
18:00−13˚юз229791 0.1 101379
21:00−13˚зюз249787 0.1 101397
20 января, ср
ср2000:00−13˚зюз249787 0.1 101296
03:00−12˚зюз269688 0.2 1012157
06:00−13˚зюз259792 0.1 1011126
09:00−14˚з239789 0.1 101179
12:00−11˚з259586 0.1 1011246
15:00−10˚з279593 0.3 1011284
18:00−11˚з2796100 0.3 1012219
21:00−12˚з2596100 0.4 1013138
21 января, чт
чт2100:00−13˚сз129791 0.1 101335
03:00−16˚ссз129794 0.1 101420
06:00−16˚с119788 0.3 101420
09:00−17˚с119782 0.3 101420
12:00−15˚ссв119587 0.1 1015112
15:00−16˚св129793 0.1 101597
18:00−20˚св239882 0.1 101664
21:00−22˚св239990 0.1 101682